Vorticity
5 6 7 7 7 7 6 7 5 2 5 6 5 5 2 4 8 6 6 5 8 8
6 6 6 6 7 7 7 6 6 5 4 4 4 6 4 5 8 8 10 7 12 8
3 4 6 6 7 8 8 9 9 10 10 9 8 8 9 7 5 6 9 8 6 9
10 9 9 10 9 11 12 12 13 14 15 17 15 15 16 16 13 13 9 7 14 12
12 13 10 10 11 11 10 12 17 20 14 13 9 12 20 26 19 17 20 21 23 15
13 10 10 10 10 10 11 13 9 9 9 8 6 10 16 19 19 16 13 16 24 21
9 9 9 9 9 8 9 9 8 7 7 7 9 15 18 16 17 15 15 16 16 12
10 10 9 9 8 10 8 9 9 6 5 13 15 18 16 18 16 18 11 14 15 19
7 7 8 10 12 8 10 7 7 5 13 14 19 19 17 19 14 21 17 15 20 17
6 7 11 11 11 8 6 7 5 13 11 19 18 20 25 18 17 14 16 18 16 14
11 13 9 8 8 7 7 6 13 10 19 18 20 25 16 15 16 16 14 12 9 7
18 8 10 10 7 7 8 9 10 16 18 21 22 14 13 13 10 14 12 9 9 13
6 10 8 7 8 8 8 12 12 16 21 23 10 11 12 12 13 12 10 10 15 11
9 8 8 8 8 8 11 12 12 21 19 5 16 14 16 12 12 12 9 12 11 6
Height
5694 5695 5696 5697 5697 5697 5697 5697 5696 5696 5695 5695 5695 5694 5692 5691 5689 5688 5687 5686 5685 5684
5684 5684 5685 5686 5686 5686 5686 5685 5685 5684 5683 5682 5682 5681 5680 5678 5677 5676 5675 5674 5673 5672
5673 5673 5674 5674 5674 5673 5673 5673 5672 5671 5670 5669 5667 5666 5665 5664 5663 5663 5661 5661 5660 5659
5662 5662 5662 5661 5661 5661 5661 5661 5659 5658 5657 5655 5653 5652 5650 5649 5648 5647 5647 5646 5646 5646
5651 5651 5650 5650 5650 5650 5649 5648 5648 5646 5644 5641 5639 5637 5634 5633 5632 5631 5631 5631 5632 5633
5640 5639 5639 5639 5639 5638 5638 5638 5637 5634 5631 5629 5626 5624 5621 5619 5617 5617 5617 5618 5618 5620
5630 5629 5629 5629 5630 5629 5628 5628 5625 5622 5619 5617 5614 5611 5608 5606 5605 5604 5605 5606 5607 5608
5620 5620 5620 5620 5621 5620 5619 5618 5614 5611 5608 5605 5601 5598 5596 5594 5593 5594 5594 5595 5597 5598
5611 5611 5612 5612 5612 5611 5609 5607 5604 5601 5597 5593 5589 5586 5584 5582 5583 5584 5585 5586 5588 5590
5602 5603 5604 5604 5603 5602 5600 5597 5594 5591 5586 5582 5579 5576 5575 5574 5575 5576 5577 5579 5580 5582
5595 5596 5596 5596 5594 5593 5591 5588 5585 5581 5577 5573 5570 5568 5567 5567 5568 5569 5570 5572 5574 5575
5587 5589 5588 5587 5586 5584 5582 5579 5575 5572 5567 5564 5563 5561 5561 5561 5562 5564 5565 5567 5568 5569
5580 5580 5579 5579 5578 5576 5573 5570 5567 5563 5560 5558 5557 5556 5556 5556 5557 5559 5560 5562 5563 5564
5571 5572 5572 5571 5570 5567 5565 5562 5558 5555 5553 5553 5552 5552 5551 5552 5553 5554 5556 5557 5558 5558